, LA

(GMT )
Venice

Weather History for K1B7 - November, 2013

Change the Weather History Date:

Thursday, November 14, 2013

  Actual Average Record
Temperature  
Mean Temperature 60 °F -  
Max Temperature 62 °F - - ()
Min Temperature 59 °F - - ()
Degree Days  
Heating Degree Days 4    
Growing Degree Days 10 (Base 50)    
Moisture  
Dew Point 56 °F    
Average Humidity 84    
Maximum Humidity 94    
Minimum Humidity 77    
Precipitation  
Precipitation 0.00 in - - ()
Sea Level Pressure  
Sea Level Pressure 30.26 in    
Wind  
Wind Speed 17 mph (NE)    
Max Wind Speed 28 mph    
Max Gust Speed -    
Visibility 10 miles    
Events Rain    
Averages and records for this station are not official NWS values.
T = Trace of Precipitation, MM = Missing Value Source: NWS Daily Summary

Daily Weather History Graph

Daily Weather History Graph

Search for Another Location

Airport or City:

Trip Planner

Search our weather history database for the weather conditions in past years. The results will help you decide how hot, cold, wet, or windy it might be!

Date:

Astronomy

Nov. 14, 2013 Rise Set
Actual Time 6:21 AM CST 5:03 PM CST
Civil Twilight 5:55 AM CST 5:28 PM CST
Nautical Twilight 5:27 AM CST 5:56 PM CST
Astronomical Twilight 4:58 AM CST 6:25 PM CST
Moon 3:13 PM CST (11/14) 3:28 AM CST (11/14)
Length of Visible Light 11h 32m
Length of Day
10h 42m
Waxing Gibbous, 92% of the Moon is Illuminated
Nov 14
Waxing Gibbous
Nov 17
Full
Nov 25
Last Quarter
Dec 2
New
Dec 9
First Quarter

Hourly Weather History & Observations

Time (CST) Temp. Dew Point Humidity Pressure Visibility Wind Dir Wind Speed Gust Speed Precip Events Conditions
5:01 AM 59.0 °F 51.8 °F 77% 30.29 in 10.0 mi ENE 12.7 mph - N/A   Overcast
5:45 AM 59.0 °F 51.8 °F 77% 30.30 in 10.0 mi NE 9.2 mph - N/A   Overcast
6:16 AM 59.0 °F 51.8 °F 77% 30.29 in 10.0 mi NNE 10.4 mph - N/A   Overcast
6:45 AM 59.0 °F 51.8 °F 77% 30.30 in 10.0 mi NE 12.7 mph - N/A   Overcast
7:32 AM 59.0 °F 53.6 °F 82% 30.31 in 10.0 mi North 17.3 mph - N/A   Overcast
7:57 AM 59.0 °F 55.4 °F 88% 30.31 in 10.0 mi NNE 20.7 mph - N/A   Overcast
8:27 AM 59.0 °F 53.6 °F 82% 30.32 in 10.0 mi NNE 21.9 mph - N/A   Overcast
9:01 AM 59.0 °F 55.4 °F 88% 30.32 in 10.0 mi NNE 18.4 mph - N/A Rain Light Rain
9:43 AM 59.0 °F 55.4 °F 88% 30.32 in 10.0 mi NNE 18.4 mph - N/A   Overcast
10:12 AM 59.0 °F 55.4 °F 88% 30.31 in 10.0 mi NE 24.2 mph - N/A   Overcast
10:45 AM 60.8 °F 55.4 °F 82% 30.30 in 10.0 mi NE 24.2 mph - N/A   Overcast
11:12 AM 62.6 °F 55.4 °F 77% 30.30 in 10.0 mi NE 23.0 mph - N/A   Overcast
11:45 AM 62.6 °F 55.4 °F 77% 30.26 in 10.0 mi NNE 26.5 mph - N/A   Mostly Cloudy
12:30 PM 60.8 °F 57.2 °F 88% 30.24 in 10.0 mi NNE 24.2 mph - N/A   Mostly Cloudy
12:39 PM 60.8 °F 57.2 °F 88% 30.23 in 10.0 mi NE 21.9 mph - N/A Rain Light Rain
1:01 PM 62.6 °F 57.2 °F 82% 30.22 in 10.0 mi NNE 27.6 mph - N/A   Mostly Cloudy
1:32 PM 60.8 °F 57.2 °F 88% 30.21 in 10.0 mi NE 24.2 mph - N/A   Mostly Cloudy
1:56 PM 60.8 °F 57.2 °F 88% 30.20 in 10.0 mi ENE 20.7 mph - N/A   Overcast
2:45 PM 62.6 °F 59.0 °F 88% 30.21 in 10.0 mi NE 19.6 mph - N/A   Overcast
2:54 PM 62.6 °F 59.0 °F 88% 30.21 in 9.0 mi NE 15.0 mph - N/A Rain Light Rain
3:30 PM 60.8 °F 59.0 °F 94% 30.19 in 10.0 mi NE 21.9 mph - N/A Rain Light Rain
4:00 PM 62.6 °F 59.0 °F 88% 30.18 in 10.0 mi NE 19.6 mph - N/A Rain Light Rain